sat.trackr.live / text

‹ back to catalog

STARLINK-30254

NORAD 57533 · 2023-115N

PAYLOAD ACTIVE UNKNOWN

§ Identity

Operator
Country
US
Launch date
2023-08-08
Launch site
AFWTR
Launch vehicle
Mass (kg)
RCS (m²)

Purposes: comms

External: N2YO · Heavens-Above · Gunter

§ Orbital elements

Epoch: 2026-05-24T16:37:00.140736Z

Period
94.27 min
Inclination
43.0040°
Eccentricity
0.0001107
Mean motion
15.27562014 rev/d
Perigee alt
482.3 km
Apogee alt
483.9 km
Semi-major
6,861.2 km
B*
1.3925e-4
RAAN
33.9398°
Arg perigee
269.2185°
Mean anomaly
90.8540°
Rev number
15,698

§ Raw data

STARLINK-302541 57533U 23115N   26144.69236274  .00003569  00000+0  13925-3 0  99962 57533  43.0040  33.9398 0001107 269.2185  90.8540 15.27562014156981

JSON: /api/v1/satellites/57533 · /tle

For live sub-satellite position, see the globe view (requires WebGL).

§ Visibility from observer

Set your observer location to see the next 7 days of passes ≥ 10°. The values pass through the URL so the page stays shareable.

No JS? Fill the form by hand. The geolocation button needs JavaScript.